EW4997 Weather Reports


time (UTC)temp
C
wind
direction
speed
KPH
gust
KPH
rain 1hr
cm
rain 24hr
cm
rain mn
cm
humidity
%
barometer
mb
20260906083040 20 234 0.0 0.0 0.00 1.32 0.00 94 991.3
20260906081535 20 234 0.0 0.0 0.00 1.32 0.00 94 991.4
20260906080031 20 234 0.0 0.0 0.00 1.32 0.00 94 991.6
20260906074539 20 234 0.0 0.0 0.00 1.32 0.00 94 991.6
20260906073030 20 234 0.0 0.0 0.00 1.32 0.00 94 991.4
20260906071528 20 234 0.0 0.0 0.00 1.32 0.00 94 991.5
20260906070028 20 234 0.0 0.0 0.00 1.32 0.00 94 991.5
20260906064529 20 234 0.0 0.0 0.00 1.32 0.00 94 991.5
20260906063026 20 234 0.0 0.0 0.00 1.32 0.00 94 991.7
20260906061524 21 234 0.0 0.0 0.00 1.32 0.00 93 991.8
20260906060023 21 234 0.0 0.0 0.00 1.32 0.00 94 991.8
20260906054522 21 234 0.0 0.0 0.00 1.32 0.00 93 992.0
20260906053021 21 234 0.0 0.0 0.00 1.32 0.00 93 991.9
20260906051523 21 230 0.0 0.0 0.00 1.32 0.00 93 992.0
20260906050019 21 230 0.0 0.0 0.00 1.32 0.00 93 992.2
20260906044518 21 230 0.0 0.0 0.00 1.32 0.00 93 992.2
20260906043017 21 230 0.0 0.0 0.00 1.32 0.00 93 991.9
20260906041520 21 230 0.0 0.0 0.00 1.32 0.00 93 991.8
20260906040013 21 230 0.0 0.0 0.00 1.32 0.00 93 992.0
20260906034514 21 230 0.0 0.0 0.00 1.32 1.32 93 992.0
20260906033012 21 230 0.0 0.0 0.00 1.32 1.32 93 992.0
20260906031510 21 230 0.0 0.0 0.00 1.32 1.32 93 992.2
20260906030011 21 230 0.0 0.0 0.00 1.32 1.32 92 992.5
20260906024511 22 230 0.0 0.0 0.00 1.32 1.32 92 992.1
20260906023009 22 230 0.0 0.0 0.00 1.32 1.32 92 992.3
20260906021509 22 230 0.0 0.0 0.00 1.32 1.32 91 992.2
20260906020009 22 230 0.0 0.0 0.00 1.32 1.32 91 992.3
20260906014525 22 230 0.0 0.0 0.00 1.32 1.32 90 992.0
20260906013009 22 230 0.0 0.0 0.00 1.32 1.32 90 991.8
20260906011508 22 230 0.0 0.0 0.00 1.32 1.32 90 991.7
20260906010025 23 250 0.0 0.0 0.00 1.32 1.32 88 991.7
20260906004507 23 250 0.0 0.0 0.00 1.32 1.32 87 991.4
20260906003007 23 250 0.0 0.0 0.00 1.32 1.32 86 991.2
20260906001506 24 250 0.0 3.2 0.00 1.32 1.32 85 991.3
20260906000005 25 250 0.0 3.2 0.00 1.32 1.32 82 991.1
20260905234505 26 250 0.0 1.6 0.00 1.35 1.32 78 991.1
20260905233004 27 250 0.0 1.6 0.00 1.35 1.32 76 991.0
20260905231504 27 250 0.0 1.6 0.00 1.35 1.32 75 991.0
20260905230003 28 267 0.0 3.2 0.00 1.35 1.32 74 991.1
20260905224503 28 293 0.0 0.0 0.00 1.35 1.32 74 991.3
20260905223002 27 290 3.2 6.4 0.00 1.35 1.32 72 991.4
20260905221605 27 175 0.0 4.8 0.00 1.35 1.32 74 991.5
20260905220059 27 171 0.0 4.8 0.00 1.35 1.32 75 991.4
20260905214559 27 321 1.6 8.0 0.00 1.35 1.32 76 991.4
20260905213100 27 300 1.6 4.8 0.00 1.35 1.32 77 991.4
20260905211559 27 184 3.2 14.5 0.00 1.35 1.32 76 991.3
20260905210059 27 298 0.0 9.7 0.00 1.35 1.32 77 991.3
20260905204602 27 150 0.0 6.4 0.00 1.35 1.32 76 991.2
20260905203101 27 318 1.6 4.8 0.00 1.35 1.32 76 991.4
20260905201605 26 146 1.6 6.4 0.00 1.35 1.32 76 991.5
20260905200058 26 284 4.8 12.9 0.00 1.35 1.32 75 991.4
20260905194552 27 309 1.6 6.4 0.00 1.35 1.32 77 991.7
20260905193050 27 200 1.6 8.0 0.00 1.35 1.32 79 992.1
20260905191550 26 186 1.6 4.8 0.00 1.35 1.32 78 992.2
20260905190047 25 194 1.6 6.4 0.00 1.35 1.32 83 992.5
20260905184548 25 194 0.0 8.0 0.00 1.35 1.32 88 992.8
20260905183106 24 276 0.0 8.0 0.00 1.35 1.32 91 993.1
20260905181545 23 289 1.6 6.4 0.00 1.35 1.32 93 993.3
20260905180050 22 204 1.6 4.8 0.00 1.35 1.32 94 993.5
20260905174544 22 205 3.2 4.8 0.00 1.35 1.32 94 994.0
20260905173044 22 227 0.0 3.2 0.00 1.35 1.32 94 994.5
20260905171548 21 178 0.0 4.8 0.00 1.35 1.32 93 994.6
20260905170047 21 177 0.0 4.8 0.56 1.35 1.32 93 994.5
20260905164542 21 201 0.0 4.8 1.32 1.35 1.32 92 994.0
20260905163043 22 207 0.0 6.4 1.32 1.35 1.32 91 994.4
20260905161544 23 168 3.2 8.0 1.32 1.35 1.32 87 994.7
20260905160041 25 327 8.0 29.0 0.71 0.76 0.71 82 995.6
20260905154539 28 323 0.0 0.0 0.00 0.03 0.00 73 994.0
20260905153039 29 320 0.0 0.0 0.00 0.03 0.00 72 993.9
20260905151538 28 172 0.0 0.0 0.00 0.03 0.00 73 993.8
20260905150032 28 250 0.0 0.0 0.00 0.03 0.00 76 993.5
20260905144534 27 304 0.0 0.0 0.00 0.03 0.00 79 993.4
20260905143026 27 297 0.0 0.0 0.00 0.03 0.00 82 993.4
20260905141522 26 277 0.0 0.0 0.00 0.03 0.00 86 993.5
20260905140016 25 298 0.0 0.0 0.00 0.03 0.00 88 993.7
20260905134511 23 311 0.0 0.0 0.00 0.03 0.00 93 993.8
20260905133008 22 263 0.0 0.0 0.00 0.03 0.00 95 993.7
20260905131506 22 62 0.0 0.0 0.00 0.03 0.00 95 993.9
20260905130002 21 67 0.0 0.0 0.00 0.03 0.00 95 994.2
20260905124501 21 69 0.0 0.0 0.00 0.03 0.00 95 994.1
20260905123000 21 69 0.0 0.0 0.00 0.03 0.00 95 994.1
20260905121601 20 69 0.0 0.0 0.00 0.03 0.00 95 994.1
20260905120100 20 69 0.0 0.0 0.00 0.03 0.00 95 993.9
20260905114559 20 69 0.0 0.0 0.00 0.03 0.00 95 993.8
20260905113108 20 69 0.0 0.0 0.00 0.03 0.00 94 993.7
20260905111605 20 69 0.0 0.0 0.00 0.03 0.00 94 993.6
20260905110058 20 69 0.0 0.0 0.00 0.03 0.00 94 993.4
20260905104610 20 69 0.0 0.0 0.00 0.03 0.00 94 993.1
20260905103059 20 69 0.0 0.0 0.00 0.03 0.00 94 993.2
20260905101556 20 69 0.0 0.0 0.00 0.03 0.00 94 993.0
20260905100054 20 69 0.0 0.0 0.00 0.03 0.00 94 993.1
20260905094554 20 69 0.0 0.0 0.00 0.03 0.00 94 993.0
20260905093053 20 69 0.0 0.0 0.00 0.03 0.00 94 992.9
20260905091552 20 69 0.0 0.0 0.00 0.03 0.00 94 992.8
20260905084549 20 69 0.0 0.0 0.00 0.03 0.00 94 992.8